Regional Weather Roundup
Issued by NWS

Home | Current Version | Previous Version | Text Only | Print | Product List | Glossary On
Versions: 1 2 3 4 5 6 7 8 9 10 11 12 13 14 15 16 17 18 19 20 21 22 23 24 25 26 27 28 29 30 31 32 33 34 35 36 37 38 39 40 41 42 43 44 45 46 47 48 49 50
000
ASUS43 KFSD 030210
RWRSD

WEATHER ROUNDUP FOR SOUTH DAKOTA
NATIONAL WEATHER SERVICE SIOUX FALLS SD
800 PM CST FRI DEC 02 2016

NOTE: "FAIR" INDICATES FEW OR NO CLOUDS BELOW 12,000 FEET WITH NO
SIGNIFICANT WEATHER AND/OR OBSTRUCTIONS TO VISIBILITY.


SDZ001>005-009-010-012>017-030300-
NORTHWEST AND NORTH CENTRAL SOUTH DAKOTA

CITY           SKY/WX    TMP DP  RH WIND       PRES   REMARKS
BUFFALO          N/A     27  25  92 S6        30.06F WCI  20
FAITH            N/A     21  21 100 S10       30.19R WCI  10
MOBRIDGE       CLEAR     25  20  81 SE8       30.21S WCI  16
$$

SDZ012>016-024>037-041>051-057-063-072>074-030300-
SOUTHWEST AND SOUTH CENTRAL SOUTH DAKOTA

CITY           SKY/WX    TMP DP  RH WIND       PRES   REMARKS
RAPID CTY ARPT CLEAR     24  21  88 S3        30.18F
PIERRE         CLEAR     20  19  96 CALM      30.24S FOG
CUSTER         CLEAR     24  16  71 S5        30.12F WCI  18
ELLSWORTH AFB  CLEAR     28  25  89 S6        30.17F WCI  21
PHILIP         CLEAR     19  18  95 CALM      30.23F
PINE RIDGE     PTCLDY    24  21  88 CALM      30.20S
SPEARFISH      FAIR      27  16  63 S3        30.14F
WINNER         FAIR      28  23  81 S7        30.27R WCI  21
$$

SDZ004>011-016>023-039-040-030300-
NORTHEAST SOUTH DAKOTA

CITY           SKY/WX    TMP DP  RH WIND       PRES   REMARKS
ABERDEEN       CLOUDY    28  18  66 N6        30.30S WCI  22
WATERTOWN      CLOUDY    24  18  77 N6        30.26F WCI  17
BROOKINGS      FLURRIES  26  21  81 NW3       30.28S
SISSETON         N/A     26  19  74 N6        30.30S WCI  19
$$

SDZ017-020-022-023-036>040-048>070-030300-
SOUTHEAST SOUTH DAKOTA

CITY           SKY/WX    TMP DP  RH WIND       PRES   REMARKS
SIOUX FALLS    CLOUDY    30  24  78 NW3       30.30S
HURON          CLOUDY    29  25  85 CALM      30.29F
CHAMBERLAIN    CLEAR     27  27  99 SE6       30.28S WCI  21
MITCHELL       CLOUDY    31  26  82 CALM      30.32R
YANKTON        CLOUDY    34  27  75 CALM      30.31S
$$

ABBREVIATIONS USED IN REMARKS
   TC - TEMPERATURE IN CELSIUS
  WCI - WIND CHILL INDEX
   HX - HEAT INDEX
  VSB - VISIBILITY





USA.gov is the U.S. government's official web portal to all federal, state and local government web resources and services.